Tracking 34794 objects as of 19-Jul-2026
HD Live streaming from Space Station
objects crossing your sky now

METEOR 2-20 DEB

Track METEOR 2-20 DEB now!
10-day predictions


NORAD ID: 59999
Int'l Code: 1990-086J
Perigee: 915.6 km
Apogee: 927.7 km
Inclination: 82.6 °
Period: 103.3 minutes
Semi major axis: 7292 km
RCS: Unknown
Launch date: September 28, 1990
Source: Commonwealth of Independent States (former USSR) (CIS)
Launch site: PLESETSK MISSILE AND SPACE COMPLEX (PKMTR)

Note: This is SATELLITE DEBRIS
Your satellite tracking list
Your tracking list is empty




NASA's NSSDC Master Catalog

Two Line Element Set (TLE):
1 59999U 90086J   26196.64984829  .00000999  00000-0  74404-3 0  9997
2 59999  82.5745 166.6759 0008293 209.2655 150.8048 13.94041170504695
Source of the keplerian elements: AFSPC